Regional Weather Roundup
Issued by NWS

Home | Current Version | Previous Version | Text Only | Print | Product List | Glossary On
Versions: 1 2 3 4 5 6 7 8 9 10 11 12 13 14 15 16 17 18 19 20 21 22 23 24 25 26 27 28
000
ASUS42 KTBW 290916
RWRFL
FLORIDA REGIONAL WEATHER ROUNDUP
NATIONAL WEATHER SERVICE TAMPA BAY RUSKIN FL
500 AM EDT MON AUG 29 2016

NOTE: "FAIR" INDICATES FEW OR NO CLOUDS BELOW 12,000 FEET WITH NO
SIGNIFICANT WEATHER AND/OR OBSTRUCTIONS TO VISIBILITY.

FLZ001>010-012>015-112-114-115-291000-
PANHANDLE FLORIDA

CITY           SKY/WX    TMP DP  RH WIND       PRES   REMARKS
PENSACOLA      CLOUDY    79  74  84 NE6       29.97R
PENSACOLA NAS  CLOUDY    79  74  84 N7        29.95F
MILTON NAS     CLEAR     76  75  97 NE7       29.98S
CRESTVIEW      CLEAR     74  71  91 NE3       30.00S
DUKE FIELD     FAIR      75  72  92 E3        29.98R
VALPARAISO     PTCLDY    78  72  82 NE6       29.97S
MARY ESTHER    CLEAR     78  74  86 E7        29.95F
TRI COUNTY     FAIR      73  71  93 CALM      30.00F
PANAMA CITY    FAIR      76  72  87 NE6       29.96S
TYNDALL AFB    CLEAR     78  73  86 E6        29.97S
APALACHICOLA   PTCLDY    82  78  88 NE9G17    29.95S

STATION/POSITION SKY/WX   TEMP    WIND        PRES    WAVE   SWELL
                          AIR SEA DIR/SP/G            HT/PER HT/PER
                          (F)     (DEG/KT/KT) (MB)    (FT/S) (FT/S)
30.1N   87.6W              83 85   40/ 14/ 16 1013.9F   2/ 6
29.2N   88.2W              85 86   60/ 12/ 16 1013.3S
28.8N   86.0W              84 85  100/ 14/ 17 1013.0S   3/ 5
PANAMA CITY BEAC           79 86  100/  7/ 12 1015.0S
TOWER C                    83     100/ 20/ 21 1014.4R
28.5N   84.5W              85 85  100/ 17/ 19 1012.5R   4/ 6

$$
FLZ011-016>038-118-127-128-134-139-239-291000-
NORTH FLORIDA

CITY           SKY/WX    TMP DP  RH WIND       PRES   REMARKS
MARIANNA       PTCLDY    74  72  93 NE6       29.99S
TALLAHASSEE    CLEAR     79  75  87 E6        29.99S
PERRY          CLEAR     76  74  92 NE3       29.99S
CROSS CITY     CLEAR     75  73  94 NE3       29.97S
LAKE CITY      FAIR      73  73 100 NE3       29.99F
GAINESVILLE    PTCLDY    77  75  93 NE6       29.98R
MAYPORT NAS    CLEAR     80  74  81 NE14      29.98S
JACKSONVILLE   PTCLDY    76  75  97 N3        29.97F
FERNANDINA BEA FAIR      82  73  74 E10       29.97F
ST AUGUSTINE   PTCLDY    82  75  79 E12       29.98S

STATION/POSITION SKY/WX   TEMP    WIND        PRES    WAVE   SWELL
                          AIR SEA DIR/SP/G            HT/PER HT/PER
                          (F)     (DEG/KT/KT) (MB)    (FT/S) (FT/S)
SHELL POINT                79      60/  5/ 13 1013.8
KEATON BEACH               76      60/  6/  9 1014.5R
CEDAR KEY                  78      50/ 10/ 12 1014.5F
FERNANDINA                 82 86   60/  3/  6 1015.5S
30.7N   81.3W                 85                N/A     4/ 6   2/17
MAYPORT                    82 85   70/ 10/ 17 1015.6F
31.4N   80.9W              83 85   70/ 12/ 14 1015.7F   4/16   3/16
ST AUGUSTINE               83 84   80/  9/ 10 1015.8R

$$
FLZ040-043>046-052-053-057-058-063-144-291000-
INTERIOR CENTRAL FLORIDA

CITY           SKY/WX    TMP DP  RH WIND       PRES   REMARKS
OCALA          CLEAR     75  72  88 N5        29.96S
THE VILLAGES     N/A     77  77 100 MISG      29.86S
LEESBURG       CLEAR     78  75  90 E5        29.96S
SANFORD        MOCLDY    76  74  93 NE3       29.95S
ORLANDO EXEC   CLEAR     77  74  90 NE6       29.94F
ORLANDO INTL   PTCLDY    78  74  87 NE8       29.94S
KISSIMMEE      CLEAR     78  76  93 NE5       29.95S
WINTER HAVEN   CLEAR     77  74  90 NE5       29.95S
LAKELAND       CLEAR     77  75  94 NE8       29.93F
BARTOW         FAIR      77 N/A N/A NE7       29.94R
OKEECHOBEE     CLEAR     73  73 100 CALM      29.92S

$$
FLZ041-047-054-059-064-141-147-291000-
EAST CENTRAL FLORIDA

CITY           SKY/WX    TMP DP  RH WIND       PRES   REMARKS
DAYTONA BEACH  PTCLDY    80  73  79 CALM      29.96R
DELAND         TSTM      75  73  94 CALM      29.95F
JFK SPACE CTR  PTCLDY    76  74  93 NE2       29.93R
CAPE CANAVERAL PTCLDY    79  76  90 NE5       29.92S
PATRICK AFB    CLEAR     82  77  85 E6        29.92S
MELBOURNE      CLEAR     82  76  81 E6        29.92S
VERO BEACH     PTCLDY    81  75  82 E7        29.92S
FT PIERCE      CLOUDY    78  75  90 NE3       29.91S
STUART         PTCLDY    82  77  83 SE5       29.91F

STATION/POSITION SKY/WX   TEMP    WIND        PRES    WAVE   SWELL
                          AIR SEA DIR/SP/G            HT/PER HT/PER
                          (F)     (DEG/KT/KT) (MB)    (FT/S) (FT/S)
28.5N   80.2W              83 83   90/ 10/ 12 1013.8F
TRIDENT PIER               81 85   90/  3/  6 1013.8F
28.4N   80.5W                 85                N/A     3/14
27.5N   80.2W                 84                N/A     3/14   2/14

$$
FLZ050-056-061-142-242-148-248-149-249-151-251-155-255-
160-260-291000-
WEST CENTRAL FLORIDA

CITY           SKY/WX    TMP DP  RH WIND       PRES   REMARKS
CRYSTAL RIVER  FAIR      77  73  88 E5        29.95S
INVERNESS      FAIR      75  75 100 NE5       29.95F
BROOKSVILLE    CLEAR     77  75  93 NE7       29.94F
CLEARWATER AIR FAIR      77  75  94 E6        29.92R
ST PETE CLEARW PTCLDY    80  77  90 E12       29.92R
TAMPA INTL     CLOUDY    79  76  90 NE5       29.93R
TAMPA EXEC     CLEAR     79  75  89 CALM      29.93S
PLANT CITY     CLEAR     79  77  94 NE5       29.95S
MACDILL AFB    PTCLDY    79  79 100 E12       29.91S
PETER O KNIGHT PTCLDY    81  79  94 NE6       29.92S
ST PETERSBURG  PTCLDY    81  77  88 E15       29.90S
SARASOTA       CLEAR     79  74  84 E9        29.89S
VENICE         FAIR      77  77 100 E8        29.90S

STATION/POSITION SKY/WX   TEMP    WIND        PRES    WAVE   SWELL
                          AIR SEA DIR/SP/G            HT/PER HT/PER
                          (F)     (DEG/KT/KT) (MB)    (FT/S) (FT/S)
27.3N   84.2W                 86                N/A     5/ 5
CLEARWATER BEACH           80 87   60/  8/ 10 1013.0F
MIDDLE TAMPA BAY                   90/ 13/ 16 1013.3F
VENICE                     78 84   70/  7/ 10 1011.8F

$$
FLZ066-069-070-075>078-162-262-165-265-291000-
SOUTHWEST FLORIDA AND KEYS

CITY           SKY/WX    TMP DP  RH WIND       PRES   REMARKS
PUNTA GORDA    CLEAR     76  75  97 E7        29.91S
FT MYERS       CLEAR     76  74  93 E5        29.88F
SOUTHWEST INTL CLEAR     76  73  91 NE6       29.89S
NAPLES         CLEAR     78  75  90 E8        29.87S
MARATHON       CLEAR     82  74  76 SE9G16    29.84S
KEY WEST NAS   MOCLDY     2 N/A N/A MISG      29.82S
KEY WEST INTL  PTCLDY    82  75  79 SE20G25   29.82F

STATION/POSITION SKY/WX   TEMP    WIND        PRES    WAVE   SWELL
                          AIR SEA DIR/SP/G            HT/PER HT/PER
                          (F)     (DEG/KT/KT) (MB)    (FT/S) (FT/S)
NAPLES                        86              1011.7S
26.0N   85.6W              84 86  100/ 16/ 19 1010.1F   3/ 5
DRY TORTUGAS               82     130/ 23/ 24 1008.9S
SAND KEY                   82     150/ 23/ 26 1009.9F
LONG KEY                   82 85  140/ 15/ 17 1010.9F

$$
FLZ067-068-071>074-168-172>174-291000-
SOUTHEAST FLORIDA

CITY           SKY/WX    TMP DP  RH WIND       PRES   REMARKS
W PALM BEACH   CLOUDY    78  74  87 CALM      29.91S
FT LAUDER-EXEC PTCLDY    77  74  90 NW3       29.88F
FT LAUDERDALE  CLOUDY    77  74  90 CALM      29.88S
POMPANO BEACH  MOCLDY    77  75  93 W3        29.88F
OPA LOCKA      CLOUDY    76  74  93 N3        29.89S
MIAMI          MOCLDY    76  76 100 N5        29.88S
WEST KENDALL   CLOUDY    78  77  96 E6        29.87F
HOMESTEAD      CLOUDY    79  76  89 E2        29.86F

STATION/POSITION SKY/WX   TEMP    WIND        PRES    WAVE   SWELL
                          AIR SEA DIR/SP/G            HT/PER HT/PER
                          (F)     (DEG/KT/KT) (MB)    (FT/S) (FT/S)
PORT EVERGLADES            82     140/  6/ 10 1012.0F
VIRGINIA KEY               80 88  130/  4/  6 1012.1F
LAKE WORTH                 82 85  120/ 15/ 17 1012.1F
FOWEY ROCKS                81 85   70/  4/  5 1012.3S
SETTLEMENT POINT           81     120/ 11/ 12 1013.4R

$$





USA.gov is the U.S. government's official web portal to all federal, state and local government web resources and services.